Regional Weather Roundup
Issued by NWS

Home | Current Version | Previous Version | Text Only | Print | Product List | Glossary On
Versions: 1 2 3 4 5 6 7 8 9 10 11 12 13 14 15 16 17 18 19 20 21 22 23 24 25 26 27
000
ASUS46 KPQR 152210
RWROR

OREGON REGIONAL WEATHER ROUNDUP
NATIONAL WEATHER SERVICE PORTLAND OR
200 PM PST FRI DEC 15 2017

NOTE: "FAIR" INDICATES FEW OR NO CLOUDS BELOW 12,000 FEET WITH
NO SIGNIFICANT WEATHER AND/OR OBSTRUCTIONS TO VISIBILITY.

ORZ001>013-152300-
NORTHWEST OREGON


CITY           SKY/WX    TMP DP  RH WIND       PRES   REMARKS
ASTORIA        CLOUDY    46  43  89 CALM      30.24R
NEWPORT        CLOUDY    48  46  93 CALM      30.31R FOG
PORTLAND       CLOUDY    40  31  70 NE5       30.27S
VANCOUVER WA   CLOUDY    40  31  70 CALM      30.26S
SCAPPOOSE      CLOUDY    37  33  85 N3        30.26S
HILLSBORO      CLOUDY    38  31  76 N3        30.25F
AURORA         CLOUDY    37  33  85 SE6       30.27F WCI  32
MCMINNVILLE    PTSUNNY   39  34  82 E6        30.26F WCI  35
SALEM          CLOUDY    41  35  79 S8        30.25F
CORVALLIS      CLOUDY    38  34  85 S5        30.28S WCI  34
EUGENE         CLOUDY    38  36  92 S6        30.28S WCI  33
$$

ORZ021-028-152300-
SOUTHWEST OREGON


CITY           SKY/WX    TMP DP  RH WIND       PRES   REMARKS
NORTH BEND     LGT RAIN  46  45  93 CALM      30.32R FOG
BROOKINGS      CLOUDY    51  45  79 NW8       30.21S
ROSEBURG       CLOUDY    39  37  92 SW3       30.29S FOG
SEXTON SUMMIT  CLOUDY    41  37  86 VRB7      30.19F
GRANTS PASS    CLOUDY    36  36 100 CALM      30.29F
MEDFORD        CLOUDY    41  36  82 SW3       30.24F
$$

ORZ014>016-041-152300-
COLUMBIA GORGE


CITY           SKY/WX    TMP DP  RH WIND       PRES   REMARKS
TROUTDALE      CLOUDY    41  33  73 E5        30.26F
HOOD RIVER     CLOUDY    41  34  75 W7        30.19S
THE DALLES     CLOUDY    38  27  64 CALM      30.21S
$$

ORZ029>031-041-044-049-050-061>064-502-503-505>511-152300-
EASTERN OREGON


CITY           SKY/WX    TMP DP  RH WIND       PRES   REMARKS
MADRAS         CLOUDY   N/A N/A N/A SE6       30.15F
REDMOND        CLOUDY    38  36  92 SE5       30.13F WCI  34
BEND           CLOUDY    41  28  60 SE5       30.14F
PRINEVILLE     MIX PCPN  41  34  75 CALM      30.14S
KLAMATH FALLS  CLOUDY    38  28  67 CALM      30.16S
LAKEVIEW       PTSUNNY   39  26  59 E3        30.12F
HERMISTON      MIX PCPN  32  31  96 CALM      30.17F
PENDLETON      FRZ RAIN  30  28  92 SE6       30.12F FOG     WCI  24
JOHN DAY       CLOUDY    36  27  70 W7        30.12R WCI  30
MEACHAM        LGT SNOW  32  28  85 CALM      30.07F FOG
LA GRANDE      NOT AVBL
BAKER CITY     CLOUDY    30  20  66 CALM      30.16F
BURNS          CLOUDY    24  22  91 VRB3      30.12F
ROME             N/A     25  22  88 NE8       30.10F WCI  16
ONTARIO        CLOUDY    29  27  92 CALM      30.24F
$$




USA.gov is the U.S. government's official web portal to all federal, state and local government web resources and services.